Location: Chandler
(33.3060°N, 111.8410°W)
Time: 09:25:24
(UTC-07:00)

Amateur Radio Satellites - All Passes

Search period start: 21 November 2014 08:55
Search period end: 22 November 2014 08:55
Location: Chandler, 33.3060°N, 111.8410°W

Satellite Date Start Highest point End Downlink Frequencies (MHz)
Time Altitude Azimuth
GONETS M04 21 Nov 08:57:07 09:05:49 73° 93° (E) 09:14:37
DOVE 4 21 Nov 09:00:18 09:03:09 18° 95° (E) 09:06:03 437.250
Oscar 11 21 Nov 09:08:47 09:11:16 15° 94° (E) 09:13:45 145.826/435.025
UNISAT 6 21 Nov 09:15:22 09:16:44 11° 67° (ENE) 09:18:05 437.425
GOMX 1 21 Nov 09:17:00 09:20:54 40° 99° (E) 09:24:52 467.674
BRITE-PL 21 Nov 09:18:31 09:22:38 62° 101° (E) 09:26:45 437.365/2234.400
DX 1 21 Nov 09:22:59 09:26:10 20° 96° (E) 09:29:20 434.975-435.025
POLYITAN 1 21 Nov 09:26:01 09:26:09 10° 66° (ENE) 09:26:17 437.675
SEEDS 21 Nov 09:28:16 09:32:32 79° 102° (ESE) 09:36:48 437.485
QB50P2 21 Nov 09:28:59 09:30:20 11° 66° (ENE) 09:31:41 145.880/145.840
DUCHIFAT 1 21 Nov 09:37:30 09:39:49 14° 68° (ENE) 09:42:07 145.980
ANTELSAT 21 Nov 09:41:10 09:44:36 24° 71° (ENE) 09:48:01 437.575/2403.000
ISS 21 Nov 09:42:29 09:45:07 22° 231° (SW) 09:47:46 145.825
HO-68 21 Nov 09:43:30 09:50:41 80° 287° (WNW) 09:57:49 435.675
ZACube-1 21 Nov 09:46:49 09:49:34 17° 95° (E) 09:52:20 437.345
CANX-2 21 Nov 09:48:59 09:53:03 44° 286° (WNW) 09:57:08 2200.000
AISAT 21 Nov 09:53:22 09:55:15 13° 93° (E) 09:57:08 437.250
NANOSAT C BR1 21 Nov 09:54:48 09:58:11 23° 71° (ENE) 10:01:34 145.865
AAUSAT CUBESAT 2 21 Nov 09:55:57 10:00:08 64° 284° (WNW) 10:04:19 437.432
QB50P1 21 Nov 10:03:34 10:07:17 30° 72° (ENE) 10:11:00 145.935-145.965
COMPASS 1 21 Nov 10:07:44 10:11:41 39° 286° (WNW) 10:15:39 437.405
HUMSAT D 21 Nov 10:09:38 10:12:32 18° 95° (E) 10:15:26 437.325/437.525
CINEMA 3 21 Nov 10:14:18 10:18:29 89° 103° (ESE) 10:22:48 145.822/145.860
FUNcube-1 21 Nov 10:22:15 10:26:18 46° 100° (E) 10:30:24 145.935
CUBEBUG 2 21 Nov 10:23:36 10:27:48 69° 101° (ESE) 10:32:05 437.445
CUTE 1.7 & AOD 2 21 Nov 10:25:16 10:28:17 19° 290° (WNW) 10:31:17 437.475
POPSAT HIP 1 21 Nov 10:27:05 10:31:17 58° 75° (ENE) 10:35:29 437.405
DELFI C3 21 Nov 10:27:43 10:31:49 65° 284° (WNW) 10:35:54 145.870
UKube-1 21 Nov 10:27:53 10:32:12 66° 285° (WNW) 10:36:28 .
50 SAT 21 Nov 10:32:54 10:36:25 28° 97° (E) 10:39:57 437.505
UWE-3 21 Nov 10:34:54 10:39:07 82° 102° (ESE) 10:43:25 435.000/436.395/437.385
DOVE 4 21 Nov 10:37:25 10:40:55 27° 288° (WNW) 10:44:29 437.250
TIGRISAT 21 Nov 10:38:05 10:42:23 69° 259° (WSW) 10:46:38 435.000
BUGSAT 1 21 Nov 10:41:15 10:45:31 72° 76° (ENE) 10:49:46 437.445
Oscar 11 21 Nov 10:43:32 10:47:31 37° 287° (WNW) 10:51:30 145.826/435.025
ESTCUBE 1 21 Nov 10:45:37 10:48:47 19° 95° (E) 10:51:56 437.505/2401.250
UNISAT 6 21 Nov 10:48:53 10:53:04 49° 260° (W) 10:57:14 437.425
SHINDAISAT 21 Nov 10:54:53 10:56:29 22° 114° (ESE) 10:58:06 437.305
GOMX 1 21 Nov 10:56:56 10:58:41 13° 292° (WNW) 11:00:27 467.674
GONETS M04 21 Nov 10:57:19 11:03:23 20° 291° (WNW) 11:09:31
POLYITAN 1 21 Nov 10:57:22 11:01:35 57° 259° (W) 11:05:47 437.675
DX 1 21 Nov 10:58:40 11:02:22 28° 289° (WNW) 11:06:03 434.975-435.025
QB50P2 21 Nov 11:01:38 11:05:47 50° 260° (W) 11:09:57 145.880/145.840
VELOX 1 21 Nov 11:04:44 11:09:10 88° 284° (WNW) 11:13:34 145.980
DUCHIFAT 1 21 Nov 11:11:20 11:15:20 39° 261° (W) 11:19:20 145.980
ANTELSAT 21 Nov 11:17:55 11:21:18 23° 264° (W) 11:24:41 437.575/2403.000
ZACube-1 21 Nov 11:22:15 11:25:57 31° 287° (WNW) 11:29:42 437.345
AISAT 21 Nov 11:27:52 11:32:05 45° 287° (WNW) 11:36:16 437.250
NANOSAT C BR1 21 Nov 11:30:33 11:33:57 23° 264° (W) 11:37:22 145.865
HO-68 21 Nov 11:34:35 11:37:14 12° 303° (WNW) 11:39:53 435.675
QB50P1 21 Nov 11:40:14 11:43:11 18° 265° (W) 11:46:07 145.935-145.965
HUMSAT D 21 Nov 11:44:47 11:48:19 27° 288° (WNW) 11:51:52 437.325/437.525
Oscar 19 21 Nov 11:56:10 11:58:08 12° 64° (ENE) 12:00:06 437.125/150
CUBEBUG 1 21 Nov 12:00:17 12:04:35 57° 285° (WNW) 12:08:49 437.445
FUNcube-1 21 Nov 12:00:41 12:02:15 12° 293° (WNW) 12:03:49 145.935
50 SAT 21 Nov 12:08:52 12:11:31 17° 290° (WNW) 12:14:10 437.505
SPROUT 21 Nov 12:09:30 12:13:23 33° 98° (E) 12:17:14 437.525
TISAT 1 21 Nov 12:15:45 12:19:48 46° 100° (E) 12:23:50 437.305
ESTCUBE 1 21 Nov 12:21:38 12:25:41 32° 288° (WNW) 12:29:42 437.505/2401.250
ITAMSAT 1 21 Nov 12:37:41 12:39:42 12° 63° (ENE) 12:41:42 435.822/435.867
AUBIESAT-1 21 Nov 12:45:33 12:49:11 21° 99° (E) 12:52:46 437.475
M-CUBED/EXP-1 PRIME 21 Nov 12:46:51 12:50:47 24° 100° (E) 12:54:38 437.505
BEESAT 21 Nov 13:01:24 13:04:54 20° 95° (E) 13:08:24 436.000
YUBILEINY 21 Nov 13:24:27 13:31:23 26° 72° (ENE) 13:38:14 435.215
Oscar 19 21 Nov 13:31:47 13:36:51 67° 258° (WSW) 13:41:57 437.125/150
SO-50 21 Nov 13:36:43 13:40:48 26° 53° (NE) 13:44:54 436.795
SPROUT 21 Nov 13:46:29 13:49:10 17° 291° (WNW) 13:51:51 437.525
ITUPSAT 1 21 Nov 13:52:49 13:57:38 75° 102° (ESE) 14:02:25 437.325
TISAT 1 21 Nov 13:53:41 13:55:12 12° 294° (WNW) 13:56:42 437.305
SWISSCUBE 21 Nov 14:05:51 14:10:38 70° 285° (WNW) 14:15:23 437.505
CUSAT 1 21 Nov 14:05:52 14:08:58 42° 278° (W) 14:11:36 437.405
DANDE 21 Nov 14:09:10 14:12:33 51° 278° (W) 14:15:19 436.750
ITAMSAT 1 21 Nov 14:13:20 14:18:32 70° 258° (WSW) 14:23:45 435.822/435.867
Gurwin Techsat 1B 21 Nov 14:15:50 14:21:05 67° 75° (ENE) 14:26:22 435.225
AUBIESAT-1 21 Nov 14:19:40 14:24:12 38° 292° (WNW) 14:28:39 437.475
STARS 21 Nov 14:20:30 14:23:29 18° 95° (E) 14:26:27 437.465
M-CUBED/EXP-1 PRIME 21 Nov 14:21:21 14:25:46 34° 293° (WNW) 14:30:08 437.505
AO-7 21 Nov 14:35:12 14:41:48 27° 60° (ENE) 14:48:24 29.400- 29.500
BEESAT 21 Nov 14:38:28 14:42:46 34° 289° (WNW) 14:47:02 436.000
KKS-1 21 Nov 14:49:18 14:53:42 62° 101° (E) 14:58:05 437.445
HORYU 2 21 Nov 14:57:43 15:02:08 81° 76° (ENE) 15:06:35 437.375
RS-15 21 Nov 15:01:39 15:07:37 16° 100° (E) 15:13:30 29.354- 29.394
VERMONT LUNAR 21 Nov 15:11:47 15:14:28 20° 143° (SE) 15:17:10 437.305
SO-50 21 Nov 15:17:01 15:21:20 32° 248° (WSW) 15:25:39 436.795
YUBILEINY 21 Nov 15:20:07 15:28:33 58° 269° (W) 15:36:58 435.215
JAS-2 21 Nov 15:40:01 15:45:21 22° 62° (ENE) 15:50:52 435.910
STARS 21 Nov 15:56:06 15:59:59 31° 288° (WNW) 16:03:51 437.465
Gurwin Techsat 1B 21 Nov 15:59:39 16:01:26 12° 268° (W) 16:03:12 435.225
PHONESAT 2.4 21 Nov 16:17:52 16:21:27 47° 149° (SSE) 16:25:02 2401.200-2431.200
AO-7 21 Nov 16:25:53 16:33:59 59° 257° (WSW) 16:42:10 29.400- 29.500
O/OREOS (USA 219) 21 Nov 16:47:36 16:51:40 34° 66° (ENE) 16:55:45 437.305
MaSat-1 21 Nov 16:47:57 16:50:44 26° 295° (WNW) 16:53:18 437.345
VERMONT LUNAR 21 Nov 16:49:06 16:52:43 71° 336° (NNW) 16:56:21 437.305
MOZHAYETS 4 21 Nov 16:54:59 16:59:16 35° 98° (E) 17:03:31
CUTE-I 21 Nov 16:58:08 17:01:53 20° 66° (ENE) 17:05:37 437.470
RS-15 21 Nov 17:07:17 17:18:20 88° 116° (ESE) 17:29:18 29.354- 29.394
JAS-2 21 Nov 17:22:14 17:29:29 71° 259° (WSW) 17:37:19 435.910
Cubesat XI-IV 21 Nov 17:53:20 17:58:40 71° 75° (ENE) 18:04:01 437.490
PHONESAT 2.4 21 Nov 17:56:47 18:00:19 40° 344° (NNW) 18:03:51 2401.200-2431.200
PRISM 21 Nov 18:17:27 18:21:36 52° 100° (E) 18:25:42 437.425
CUBESAT XI-V 21 Nov 18:23:03 18:26:32 21° 95° (E) 18:29:59 437.345
O/OREOS (USA 219) 21 Nov 18:27:55 18:30:44 17° 260° (W) 18:33:34 437.305
VERMONT LUNAR 21 Nov 18:28:25 18:31:35 27° 352° (N) 18:34:45 437.305
MOZHAYETS 4 21 Nov 18:33:00 18:36:11 19° 291° (WNW) 18:39:22
STRAND 1 21 Nov 18:33:55 18:38:13 27° 97° (E) 18:42:28 437.568
CUTE-I 21 Nov 18:36:28 18:41:34 44° 260° (W) 18:46:41 437.470
GONETS M04 21 Nov 19:13:31 19:20:54 29° 73° (ENE) 19:28:12
PCSat 21 Nov 19:22:51 19:25:16 13° 103° (ESE) 19:27:41 145.827
RS-15 21 Nov 19:23:40 19:32:08 25° 320° (NW) 19:40:41 29.354- 29.394
PHONESAT 2.4 21 Nov 19:36:31 19:39:41 26° 1° (N) 19:42:50 2401.200-2431.200
Cubesat XI-IV 21 Nov 19:37:37 19:39:10 11° 268° (W) 19:40:42 437.490
CUTE 1.7 & AOD 2 21 Nov 19:39:53 19:41:49 13° 68° (ENE) 19:43:45 437.475
PRISM 21 Nov 19:55:37 19:56:38 11° 294° (WNW) 19:57:40 437.425
CUBESAT XI-V 21 Nov 19:59:52 20:03:57 31° 289° (WNW) 20:08:00 437.345
DOVE 4 21 Nov 20:03:09 20:05:37 14° 69° (ENE) 20:08:02 437.250
HO-68 21 Nov 20:07:10 20:14:02 52° 69° (ENE) 20:20:56 435.675
VERMONT LUNAR 21 Nov 20:07:28 20:10:42 29° 10° (N) 20:13:55 437.305
SHINDAISAT 21 Nov 20:12:42 20:13:40 13° 56° (ENE) 20:14:37 437.305
STRAND 1 21 Nov 20:12:58 20:17:18 28° 291° (WNW) 20:21:36 437.568
DX 1 21 Nov 20:16:55 20:18:12 11° 65° (ENE) 20:19:29 434.975-435.025
SEEDS 21 Nov 20:17:06 20:20:47 31° 73° (ENE) 20:24:30 437.485
GOMX 1 21 Nov 20:21:02 20:25:26 32° 73° (ENE) 20:29:36 467.674
BRITE-PL 21 Nov 20:24:36 20:29:42 50° 75° (ENE) 20:34:27 437.365/2234.400
BEESAT 3 21 Nov 20:32:14 20:35:24 22° 110° (ESE) 20:38:36 437.485
AIST 1 21 Nov 20:33:11 20:37:33 86° 276° (W) 20:41:59
CANX-2 21 Nov 20:37:47 20:41:59 76° 77° (ENE) 20:46:12 2200.000
AAUSAT CUBESAT 2 21 Nov 20:43:19 20:47:18 48° 75° (ENE) 20:51:18 437.432
BEESAT 2 21 Nov 20:43:23 20:46:50 27° 111° (ESE) 20:50:21 435.950
COMPASS 1 21 Nov 20:55:04 20:59:13 80° 77° (ENE) 21:03:24 437.405
AIST 2 21 Nov 20:57:20 21:00:15 18° 109° (ESE) 21:03:11 435.215
PCSat 21 Nov 21:02:42 21:08:02 64° 297° (WNW) 21:13:26 145.827
GONETS M04 21 Nov 21:09:31 21:17:58 52° 270° (W) 21:26:20
CINEMA 3 21 Nov 21:12:12 21:16:35 49° 75° (ENE) 21:20:49 145.822/145.860
DELFI C3 21 Nov 21:12:35 21:16:26 43° 74° (ENE) 21:20:18 145.870
CUTE 1.7 & AOD 2 21 Nov 21:13:22 21:17:21 41° 261° (W) 21:21:21 437.475
FUNcube-1 21 Nov 21:15:12 21:18:31 22° 71° (ENE) 21:21:47 145.935
PHONESAT 2.4 21 Nov 21:15:27 21:19:01 43° 18° (NNE) 21:22:34 2401.200-2431.200
CUBEBUG 2 21 Nov 21:18:26 21:22:23 34° 73° (ENE) 21:26:14 437.445
UKube-1 21 Nov 21:18:50 21:23:07 60° 75° (ENE) 21:27:25 .
50 SAT 21 Nov 21:20:21 21:21:42 11° 67° (ENE) 21:23:03 437.505
UWE-3 21 Nov 21:28:32 21:32:33 39° 74° (ENE) 21:36:30 435.000/436.395/437.385
Oscar 11 21 Nov 21:33:49 21:38:06 82° 258° (WSW) 21:42:26 145.826/435.025
DOVE 4 21 Nov 21:38:22 21:43:02 47° 260° (W) 21:47:28 437.250
ESTCUBE 1 21 Nov 21:43:34 21:44:56 11° 65° (ENE) 21:46:18 437.505/2401.250
VERMONT LUNAR 21 Nov 21:45:51 21:49:30 86° 26° (NNE) 21:53:07 437.305
DX 1 21 Nov 21:49:38 21:53:55 55° 259° (W) 21:58:14 434.975-435.025
SEEDS 21 Nov 21:54:03 21:56:39 16° 266° (W) 21:59:17 437.485
HO-68 21 Nov 21:56:15 22:01:55 25° 264° (W) 22:07:38 435.675
VELOX 1 21 Nov 21:58:34 22:02:53 49° 74° (ENE) 22:07:13 145.980
GOMX 1 21 Nov 21:59:38 22:03:30 22° 264° (W) 22:07:12 467.674
BRITE-PL 21 Nov 22:05:16 22:08:17 15° 266° (W) 22:11:12 437.365/2234.400
BEESAT 3 21 Nov 22:10:02 22:13:28 25° 305° (NW) 22:16:58 437.485
ZACube-1 21 Nov 22:13:58 22:18:14 66° 259° (W) 22:22:25 437.345
POPSAT HIP 1 21 Nov 22:18:49 22:20:48 13° 94° (E) 22:22:46 437.405
AISAT 21 Nov 22:21:39 22:26:09 85° 258° (WSW) 22:30:40 437.250
BEESAT 2 21 Nov 22:21:52 22:25:05 22° 307° (NW) 22:28:21 435.950
BUGSAT 1 21 Nov 22:29:58 22:32:09 14° 94° (E) 22:34:18 437.445
HUMSAT D 21 Nov 22:32:30 22:36:39 67° 259° (W) 22:40:46 437.325/437.525
TIGRISAT 21 Nov 22:34:13 22:38:10 32° 98° (E) 22:42:11 435.000
AIST 2 21 Nov 22:34:49 22:38:36 32° 304° (NW) 22:42:28 435.215
UNISAT 6 21 Nov 22:44:58 22:49:13 44° 100° (E) 22:53:31 437.425
POLYITAN 1 21 Nov 22:47:53 22:51:38 31° 98° (E) 22:55:23 437.675
DELFI C3 21 Nov 22:50:52 22:51:55 11° 267° (W) 22:52:58 145.870
FUNcube-1 21 Nov 22:51:18 22:54:44 23° 263° (W) 22:58:09 145.935
QB50P2 21 Nov 22:51:46 22:55:38 34° 98° (E) 22:59:29 145.880/145.840
CUBEBUG 1 21 Nov 22:52:13 22:56:39 69° 76° (ENE) 23:01:05 437.445
CINEMA 3 21 Nov 22:52:28 22:53:57 11° 267° (W) 22:55:25 145.822/145.860
50 SAT 21 Nov 22:52:44 22:56:37 43° 261° (W) 23:00:29 437.505
PHONESAT 2.4 21 Nov 22:54:20 22:57:50 40° 212° (SSW) 23:01:18 2401.200-2431.200
CUBEBUG 2 21 Nov 22:56:32 22:59:08 16° 265° (W) 23:01:42 437.445
DUCHIFAT 1 21 Nov 23:00:47 23:04:49 44° 99° (E) 23:08:50 145.980
SPROUT 21 Nov 23:01:01 23:03:44 17° 69° (ENE) 23:06:28 437.525
TISAT 1 21 Nov 23:05:11 23:08:27 22° 70° (ENE) 23:11:43 437.305
UWE-3 21 Nov 23:07:04 23:09:12 13° 266° (W) 23:11:19 435.000/436.395/437.385
ANTELSAT 21 Nov 23:13:00 23:17:26 83° 283° (WNW) 23:21:57 437.575/2403.000
ESTCUBE 1 21 Nov 23:16:48 23:21:15 58° 259° (W) 23:25:45 437.505/2401.250
NANOSAT C BR1 21 Nov 23:19:15 23:23:29 78° 102° (ESE) 23:27:41 145.865
VERMONT LUNAR 21 Nov 23:25:26 23:27:39 16° 219° (SW) 23:29:52 437.305
QB50P1 21 Nov 23:28:30 23:32:43 80° 283° (WNW) 23:36:55 145.935-145.965
AUBIESAT-1 21 Nov 23:33:18 23:34:45 12° 60° (ENE) 23:36:14 437.475
M-CUBED/EXP-1 PRIME 21 Nov 23:34:38 23:36:36 14° 61° (ENE) 23:38:39 437.505
VELOX 1 21 Nov 23:38:03 23:39:41 12° 267° (W) 23:41:20 145.980
POPSAT HIP 1 21 Nov 23:52:55 23:56:50 39° 287° (WNW) 00:00:45 437.405
RS-15 22 Nov 00:02:40 00:10:04 19° 34° (NE) 00:17:37 29.354- 29.394
BUGSAT 1 22 Nov 00:04:02 00:07:44 33° 287° (WNW) 00:11:23 437.445
BEESAT 22 Nov 00:05:04 00:07:49 15° 66° (ENE) 00:10:33 436.000
TIGRISAT 22 Nov 00:11:39 00:14:40 18° 291° (WNW) 00:17:44 435.000
UNISAT 6 22 Nov 00:23:23 00:25:37 14° 292° (WNW) 00:27:53 437.425
POLYITAN 1 22 Nov 00:24:34 00:27:20 17° 291° (WNW) 00:30:05 437.675
QB50P2 22 Nov 00:28:45 00:31:15 16° 292° (WNW) 00:33:44 145.880/145.840
SPROUT 22 Nov 00:35:35 00:39:31 34° 262° (W) 00:43:29 437.525
DUCHIFAT 1 22 Nov 00:38:33 00:40:16 12° 293° (WNW) 00:41:59 145.980
TISAT 1 22 Nov 00:40:35 00:44:08 25° 263° (W) 00:47:41 437.305
ISS 22 Nov 00:44:03 00:47:19 85° 136° (SE) 00:50:37 145.825
CUSAT 1 22 Nov 00:46:06 00:50:35 72° 82° (E) 00:56:41 437.405
DANDE 22 Nov 00:51:49 00:56:08 68° 82° (E) 01:02:01 436.750
ITUPSAT 1 22 Nov 00:55:37 01:00:17 54° 74° (ENE) 01:04:59 437.325
AUBIESAT-1 22 Nov 01:05:35 01:09:13 45° 257° (WSW) 01:13:11 437.475
M-CUBED/EXP-1 PRIME 22 Nov 01:07:42 01:11:13 38° 258° (WSW) 01:15:04 437.505
SWISSCUBE 22 Nov 01:08:16 01:13:03 83° 76° (ENE) 01:17:53 437.505
STARS 22 Nov 01:16:52 01:17:10 10° 65° (ENE) 01:17:28 437.465
JUGNU 22 Nov 01:37:56 01:41:52 18° 170° (S) 01:45:48 437.505
BEESAT 22 Nov 01:40:38 01:45:13 46° 260° (W) 01:49:51 436.000
SRMSAT 22 Nov 01:42:03 01:43:51 11° 163° (SSE) 01:45:39 437.500
KKS-1 22 Nov 01:43:51 01:47:51 34° 72° (ENE) 01:51:52 437.445
Oscar 19 22 Nov 01:47:32 01:52:39 62° 101° (E) 01:57:45 437.125/150
RS-15 22 Nov 02:13:38 02:24:55 69° 59° (ENE) 02:36:40 29.354- 29.394
YUBILEINY 22 Nov 02:19:52 02:27:30 34° 86° (E) 02:35:06 435.215
ISS 22 Nov 02:23:13 02:24:22 11° 331° (NNW) 02:25:32 145.825
ITAMSAT 1 22 Nov 02:30:33 02:35:40 60° 101° (E) 02:40:45 435.822/435.867
MaSat-1 22 Nov 02:30:56 02:33:09 41° 250° (WSW) 02:35:28 437.345
ITUPSAT 1 22 Nov 02:36:27 02:38:26 12° 267° (W) 02:40:26 437.325
Gurwin Techsat 1B 22 Nov 02:36:36 02:41:31 37° 98° (E) 02:46:23 435.225
STARS 22 Nov 02:48:44 02:53:05 61° 259° (W) 02:57:28 437.465
HORYU 2 22 Nov 02:54:19 02:57:48 22° 96° (E) 03:01:16 437.375
KKS-1 22 Nov 03:21:36 03:24:32 17° 265° (W) 03:27:29 437.445
JUGNU 22 Nov 03:25:47 03:30:16 22° 180° (S) 03:34:45 437.505
SRMSAT 22 Nov 03:28:10 03:32:21 20° 172° (S) 03:36:32 437.500
Oscar 19 22 Nov 03:29:00 03:31:25 13° 295° (WNW) 03:33:49 437.125/150
SO-50 22 Nov 03:48:31 03:51:40 19° 109° (ESE) 03:54:53 436.795
MOZHAYETS 4 22 Nov 03:53:47 03:57:12 21° 69° (ENE) 04:00:38
ITAMSAT 1 22 Nov 04:12:03 04:14:36 14° 296° (WNW) 04:17:08 435.822/435.867
YUBILEINY 22 Nov 04:15:43 04:23:58 44° 282° (WNW) 04:32:16 435.215
Gurwin Techsat 1B 22 Nov 04:17:10 04:21:11 22° 292° (WNW) 04:25:12 435.225
RS-15 22 Nov 04:27:21 04:36:23 29° 256° (WSW) 04:45:47 29.354- 29.394
HORYU 2 22 Nov 04:30:37 04:34:24 27° 289° (WNW) 04:38:11 437.375
AO-7 22 Nov 04:31:56 04:40:14 64° 104° (ESE) 04:48:29 29.400- 29.500
JAS-2 22 Nov 04:39:00 04:44:17 23° 91° (E) 04:49:06 435.910
PRISM 22 Nov 05:05:03 05:08:20 23° 70° (ENE) 05:11:40 437.425
JUGNU 22 Nov 05:14:50 05:18:40 18° 191° (S) 05:22:30 437.505
SRMSAT 22 Nov 05:16:27 05:20:55 22° 183° (S) 05:25:21 437.500
CUBESAT XI-V 22 Nov 05:23:55 05:26:14 14° 66° (ENE) 05:28:33 437.345
SO-50 22 Nov 05:27:47 05:31:54 35° 304° (NW) 05:36:08 436.795
MOZHAYETS 4 22 Nov 05:30:14 05:34:12 29° 263° (W) 05:38:14
STRAND 1 22 Nov 05:45:58 05:50:12 26° 69° (ENE) 05:54:26 437.568
PCSat 22 Nov 05:54:56 06:00:03 41° 60° (ENE) 06:05:08 145.827
Cubesat XI-IV 22 Nov 06:15:16 06:20:14 39° 99° (E) 06:25:10 437.490
JAS-2 22 Nov 06:22:47 06:29:41 52° 289° (WNW) 06:35:48 435.910
AO-7 22 Nov 06:25:53 06:32:20 26° 300° (WNW) 06:38:48 29.400- 29.500
BEESAT 3 22 Nov 06:33:09 06:37:16 53° 59° (ENE) 06:41:18 437.485
PRISM 22 Nov 06:40:28 06:43:46 23° 264° (W) 06:47:07 437.425
BEESAT 2 22 Nov 06:44:58 06:49:10 67° 61° (ENE) 06:53:17 435.950
AIST 1 22 Nov 06:46:21 06:49:01 16° 75° (ENE) 06:51:40
O/OREOS (USA 219) 22 Nov 06:55:11 06:59:41 88° 288° (WNW) 07:04:12 437.305
CUTE-I 22 Nov 06:57:40 07:02:59 79° 285° (WNW) 07:08:17 437.470
CUBESAT XI-V 22 Nov 06:58:37 07:03:11 51° 260° (W) 07:07:47 437.345
AIST 2 22 Nov 07:00:22 07:04:31 46° 59° (ENE) 07:08:35 435.215
SRMSAT 22 Nov 07:06:00 07:09:27 16° 193° (SSW) 07:12:53 437.500
ISS 22 Nov 07:16:37 07:18:48 16° 32° (NNE) 07:20:59 145.825
STRAND 1 22 Nov 07:24:45 07:29:13 30° 263° (W) 07:33:42 437.568
PCSat 22 Nov 07:39:07 07:43:07 21° 254° (WSW) 07:47:07 145.827
Cubesat XI-IV 22 Nov 07:56:04 08:00:01 22° 293° (WNW) 08:03:56 437.490
GONETS M04 22 Nov 08:08:59 08:16:49 38° 87° (E) 08:24:42
BEESAT 3 22 Nov 08:14:36 08:14:57 10° 253° (WSW) 08:15:19 437.485
AIST 1 22 Nov 08:22:50 08:26:45 33° 269° (W) 08:30:37
CANX-2 22 Nov 08:28:38 08:31:36 18° 95° (E) 08:34:34 2200.000
AAUSAT CUBESAT 2 22 Nov 08:33:41 08:34:51 11° 92° (E) 08:36:01 437.432
BRITE-PL 22 Nov 08:35:00 08:37:46 17° 95° (E) 08:40:33 437.365/2234.400
AIST 2 22 Nov 08:40:51 08:42:41 13° 253° (WSW) 08:44:31 435.215
COMPASS 1 22 Nov 08:44:24 08:47:20 18° 95° (E) 08:50:16 437.405
